Wetterdaten: Montag, 30.03.2015
Datum Zeit Temp. A. Feuchte A. Luftdruck Regen Wind Richtung Richtung Sonnenschein ET UV Solar Taupunkt Windchill Windben Empfang
30.03.2015 00:00 9,1 C 81 % 999,3 hPa 0,0 l/m 2,2 km/h (1 Bft) NW 314 0 min 0,000 mm 0,0 UV-I 0 W/m 6,0 C 9,1 C 4,0 km/h (1 Bft) 0,00 %
30.03.2015 00:15 9,2 C 81 % 999,1 hPa 0,3 l/m 5,4 km/h (1 Bft) S-SW 208 0 min 0,000 mm 0,0 UV-I 0 W/m 6,1 C 9,2 C 7,9 km/h (2 Bft) 0,00 %
30.03.2015 00:30 9,1 C 80 % 999,0 hPa 0,0 l/m 1,8 km/h (1 Bft) NO 46 0 min 0,000 mm 0,0 UV-I 0 W/m 5,8 C 9,1 C 4,0 km/h (1 Bft) 0,00 %
30.03.2015 00:45 9,2 C 79 % 999,3 hPa 0,0 l/m 7,2 km/h (2 Bft) NO 35 0 min 0,000 mm 0,0 UV-I 0 W/m 5,8 C 8,6 C 15,8 km/h (3 Bft) 0,00 %
30.03.2015 01:00 9,2 C 79 % 998,9 hPa 0,0 l/m 4,7 km/h (1 Bft) S-SW 208 0 min 0,000 mm 0,0 UV-I 0 W/m 5,8 C 9,2 C 7,9 km/h (2 Bft) 0,00 %
30.03.2015 01:15 9,4 C 76 % 998,9 hPa 0,0 l/m 10,8 km/h (2 Bft) SW 219 0 min 0,000 mm 0,0 UV-I 0 W/m 5,4 C 6,5 C 15,8 km/h (3 Bft) 0,00 %
30.03.2015 01:30 9,4 C 76 % 998,8 hPa 0,0 l/m 9,7 km/h (2 Bft) NW 305 0 min 0,000 mm 0,0 UV-I 0 W/m 5,4 C 7,1 C 11,9 km/h (2 Bft) 0,00 %
30.03.2015 01:45 9,2 C 78 % 998,9 hPa 0,0 l/m 6,5 km/h (2 Bft) SW 232 0 min 0,000 mm 0,0 UV-I 0 W/m 5,6 C 9,2 C 11,9 km/h (2 Bft) 0,00 %
30.03.2015 02:00 9,0 C 80 % 998,8 hPa 0,3 l/m 0,4 km/h (0 Bft) S 177 0 min 0,000 mm 0,0 UV-I 0 W/m 5,7 C 9,0 C 4,0 km/h (1 Bft) 0,00 %
30.03.2015 02:15 9,0 C 79 % 998,4 hPa 0,0 l/m 14,8 km/h (3 Bft) SW 234 0 min 0,000 mm 0,0 UV-I 0 W/m 5,6 C 4,0 C 19,8 km/h (3 Bft) 0,00 %
30.03.2015 02:30 9,2 C 78 % 998,0 hPa 0,0 l/m 2,2 km/h (1 Bft) S-SW 192 0 min 0,000 mm 0,0 UV-I 0 W/m 5,6 C 9,2 C 7,9 km/h (2 Bft) 0,00 %
30.03.2015 02:45 9,4 C 74 % 997,8 hPa 0,0 l/m 5,8 km/h (2 Bft) N 349 0 min 0,000 mm 0,0 UV-I 0 W/m 5,0 C 9,4 C 11,9 km/h (2 Bft) 0,00 %
30.03.2015 03:00 9,5 C 72 % 997,6 hPa 0,0 l/m 13,0 km/h (3 Bft) W-SW 256 0 min 0,000 mm 0,0 UV-I 0 W/m 4,7 C 5,4 C 19,8 km/h (3 Bft) 0,00 %
30.03.2015 03:15 9,4 C 74 % 997,5 hPa 0,0 l/m 5,8 km/h (2 Bft) N-NW 335 0 min 0,000 mm 0,0 UV-I 0 W/m 5,0 C 9,4 C 11,9 km/h (2 Bft) 0,00 %
30.03.2015 03:30 9,6 C 71 % 997,2 hPa 0,0 l/m 19,4 km/h (3 Bft) W-SW 255 0 min 0,000 mm 0,0 UV-I 0 W/m 4,6 C 3,0 C 24,1 km/h (4 Bft) 0,00 %
30.03.2015 03:45 9,7 C 71 % 996,6 hPa 0,0 l/m 4,7 km/h (1 Bft) NO 47 0 min 0,000 mm 0,0 UV-I 0 W/m 4,7 C 9,7 C 7,9 km/h (2 Bft) 0,00 %
30.03.2015 04:00 9,5 C 74 % 996,7 hPa 0,0 l/m 2,2 km/h (1 Bft) N-NO 23 0 min 0,000 mm 0,0 UV-I 0 W/m 5,1 C 9,5 C 4,0 km/h (1 Bft) 0,00 %
30.03.2015 04:15 9,2 C 76 % 996,7 hPa 0,0 l/m 1,4 km/h (1 Bft) O 92 0 min 0,000 mm 0,0 UV-I 0 W/m 5,2 C 9,2 C 4,0 km/h (1 Bft) 0,00 %
30.03.2015 04:30 8,8 C 79 % 996,9 hPa 0,3 l/m 2,2 km/h (1 Bft) SW 234 0 min 0,000 mm 0,0 UV-I 0 W/m 5,4 C 8,8 C 4,0 km/h (1 Bft) 0,00 %
30.03.2015 04:45 8,8 C 80 % 996,8 hPa 0,0 l/m 9,0 km/h (2 Bft) SW 216 0 min 0,000 mm 0,0 UV-I 0 W/m 5,5 C 6,9 C 11,9 km/h (2 Bft) 0,00 %
30.03.2015 05:00 8,7 C 81 % 996,7 hPa 0,3 l/m 2,9 km/h (1 Bft) NW 326 0 min 0,000 mm 0,0 UV-I 0 W/m 5,6 C 8,7 C 4,0 km/h (1 Bft) 0,00 %
30.03.2015 05:15 8,4 C 83 % 996,8 hPa 0,3 l/m 1,4 km/h (1 Bft) NW 321 0 min 0,000 mm 0,0 UV-I 0 W/m 5,7 C 8,4 C 4,0 km/h (1 Bft) 0,00 %
30.03.2015 05:30 8,3 C 83 % 997,1 hPa 0,0 l/m 10,8 km/h (2 Bft) S-SW 204 0 min 0,000 mm 0,0 UV-I 0 W/m 5,6 C 5,2 C 15,8 km/h (3 Bft) 0,00 %
30.03.2015 05:45 8,6 C 80 % 997,4 hPa 0,0 l/m 9,4 km/h (2 Bft) W-SW 251 0 min 0,000 mm 0,0 UV-I 0 W/m 5,3 C 6,4 C 11,9 km/h (2 Bft) 0,00 %
30.03.2015 06:00 8,4 C 77 % 997,6 hPa 0,3 l/m 11,5 km/h (2 Bft) W-SW 254 0 min 0,000 mm 0,0 UV-I 0 W/m 4,6 C 4,9 C 15,8 km/h (3 Bft) 0,00 %
30.03.2015 06:15 7,9 C 78 % 997,5 hPa 0,0 l/m 17,3 km/h (3 Bft) W-SW 255 0 min 0,000 mm 0,0 UV-I 0 W/m 4,3 C 1,6 C 24,1 km/h (4 Bft) 0,00 %
30.03.2015 06:30 7,7 C 77 % 997,8 hPa 0,3 l/m 5,4 km/h (1 Bft) SO 130 0 min 0,000 mm 0,0 UV-I 0 W/m 3,9 C 7,7 C 7,9 km/h (2 Bft) 0,00 %
30.03.2015 06:45 7,4 C 79 % 998,3 hPa 0,0 l/m 4,0 km/h (1 Bft) NW 317 0 min 0,000 mm 0,0 UV-I 0 W/m 4,0 C 7,4 C 7,9 km/h (2 Bft) 0,00 %
30.03.2015 07:00 6,1 C 83 % 998,8 hPa 0,6 l/m 1,8 km/h (1 Bft) N-NW 337 0 min 0,000 mm 0,0 UV-I 0 W/m 3,4 C 6,1 C 4,0 km/h (1 Bft) 0,00 %
30.03.2015 07:15 5,7 C 85 % 998,6 hPa 0,0 l/m 0,0 km/h (0 Bft) S 190 0 min 0,000 mm 0,0 UV-I 1 W/m 3,4 C 5,7 C 0,0 km/h (0 Bft) 0,00 %
30.03.2015 07:30 5,5 C 86 % 999,0 hPa 0,3 l/m 0,7 km/h (0 Bft) SW 226 0 min 0,000 mm 0,0 UV-I 10 W/m 3,3 C 5,5 C 4,0 km/h (1 Bft) 0,00 %
30.03.2015 07:45 5,4 C 86 % 999,2 hPa 0,0 l/m 0,0 km/h (0 Bft) S-SW 209 0 min 0,000 mm 0,0 UV-I 21 W/m 3,3 C 5,4 C 0,0 km/h (0 Bft) 0,00 %
30.03.2015 08:00 5,5 C 86 % 998,9 hPa 0,3 l/m 1,8 km/h (1 Bft) NW 310 0 min 0,000 mm 1,0 UV-I 44 W/m 3,3 C 5,5 C 4,0 km/h (1 Bft) 0,00 %
30.03.2015 08:15 5,5 C 86 % 998,7 hPa 0,0 l/m 0,0 km/h (0 Bft) SW 219 0 min 0,000 mm 1,0 UV-I 54 W/m 3,3 C 5,5 C 0,0 km/h (0 Bft) 0,00 %
30.03.2015 08:30 5,6 C 86 % 998,4 hPa 0,3 l/m 0,0 km/h (0 Bft) S-SW 212 0 min 0,000 mm 1,0 UV-I 47 W/m 3,4 C 5,6 C 0,0 km/h (0 Bft) 0,00 %
30.03.2015 08:45 5,7 C 86 % 998,2 hPa 0,3 l/m 0,0 km/h (0 Bft) S 184 0 min 0,000 mm 1,0 UV-I 61 W/m 3,5 C 5,7 C 0,0 km/h (0 Bft) 0,00 %
30.03.2015 09:00 6,0 C 86 % 997,9 hPa 0,0 l/m 0,0 km/h (0 Bft) S-SW 200 0 min 0,000 mm 1,0 UV-I 59 W/m 3,8 C 6,0 C 0,0 km/h (0 Bft) 0,00 %
30.03.2015 09:15 6,3 C 87 % 997,8 hPa 0,3 l/m 0,0 km/h (0 Bft) S 182 0 min 0,000 mm 1,0 UV-I 81 W/m 4,3 C 6,3 C 0,0 km/h (0 Bft) 0,00 %
30.03.2015 09:30 6,6 C 86 % 997,7 hPa 0,3 l/m 0,0 km/h (0 Bft) W-NW 290 0 min 0,000 mm 1,0 UV-I 112 W/m 4,4 C 6,6 C 0,0 km/h (0 Bft) 0,00 %
30.03.2015 09:45 6,8 C 86 % 997,3 hPa 0,3 l/m 0,4 km/h (0 Bft) O-SO 114 0 min 0,000 mm 1,0 UV-I 100 W/m 4,6 C 6,8 C 4,0 km/h (1 Bft) 0,00 %
30.03.2015 10:00 7,3 C 85 % 997,1 hPa 0,3 l/m 0,4 km/h (0 Bft) O 85 0 min 0,000 mm 1,0 UV-I 90 W/m 4,9 C 7,3 C 4,0 km/h (1 Bft) 0,00 %
30.03.2015 10:15 7,5 C 84 % 997,7 hPa 0,3 l/m 1,4 km/h (1 Bft) SW 231 0 min 0,000 mm 1,0 UV-I 87 W/m 5,0 C 7,5 C 4,0 km/h (1 Bft) 0,00 %
30.03.2015 10:30 7,5 C 84 % 997,9 hPa 0,3 l/m 9,4 km/h (2 Bft) W 270 0 min 0,000 mm 1,0 UV-I 52 W/m 5,0 C 5,2 C 11,9 km/h (2 Bft) 0,00 %
30.03.2015 10:45 7,3 C 85 % 998,2 hPa 0,6 l/m 18,0 km/h (3 Bft) W-SW 247 0 min 0,000 mm 1,0 UV-I 51 W/m 4,9 C 0,6 C 24,1 km/h (4 Bft) 0,00 %
30.03.2015 11:00 7,1 C 84 % 998,6 hPa 0,6 l/m 7,9 km/h (2 Bft) W 267 0 min 0,000 mm 1,0 UV-I 76 W/m 4,6 C 5,9 C 7,9 km/h (2 Bft) 0,00 %
30.03.2015 11:15 6,7 C 82 % 999,3 hPa 0,9 l/m 7,2 km/h (2 Bft) W-NW 285 0 min 0,000 mm 1,0 UV-I 64 W/m 3,8 C 6,0 C 11,9 km/h (2 Bft) 0,00 %
30.03.2015 11:30 6,3 C 84 % 999,6 hPa 0,6 l/m 0,0 km/h (0 Bft) W-SW 251 0 min 0,000 mm 1,0 UV-I 50 W/m 3,8 C 6,3 C 0,0 km/h (0 Bft) 0,00 %
30.03.2015 11:45 6,3 C 86 % 1000,0 hPa 0,9 l/m 5,4 km/h (1 Bft) SW 219 0 min 0,000 mm 1,0 UV-I 81 W/m 4,1 C 6,3 C 7,9 km/h (2 Bft) 0,00 %
30.03.2015 12:00 5,3 C 84 % 1001,0 hPa 0,9 l/m 10,8 km/h (2 Bft) W-SW 252 0 min 0,000 mm 1,0 UV-I 83 W/m 2,8 C 1,9 C 15,8 km/h (3 Bft) 0,00 %
30.03.2015 12:15 4,7 C 83 % 1001,1 hPa 0,3 l/m 0,7 km/h (0 Bft) O-SO 116 0 min 0,000 mm 1,0 UV-I 91 W/m 2,1 C 4,7 C 4,0 km/h (1 Bft) 0,00 %
30.03.2015 12:30 5,0 C 82 % 1001,4 hPa 0,0 l/m 14,4 km/h (3 Bft) W-SW 251 0 min 0,000 mm 2,0 UV-I 153 W/m 2,2 C -0,6 C 19,8 km/h (3 Bft) 0,00 %
30.03.2015 12:45 5,4 C 78 % 1001,2 hPa 0,0 l/m 11,5 km/h (2 Bft) W-SW 252 0 min 0,000 mm 1,0 UV-I 103 W/m 1,9 C 1,5 C 15,8 km/h (3 Bft) 0,00 %
30.03.2015 13:00 5,7 C 78 % 1001,0 hPa 0,0 l/m 4,0 km/h (1 Bft) N-NW 347 0 min 0,000 mm 2,0 UV-I 175 W/m 2,2 C 5,7 C 7,9 km/h (2 Bft) 0,00 %
30.03.2015 13:15 6,3 C 74 % 1001,2 hPa 0,0 l/m 2,9 km/h (1 Bft) SW 227 0 min 0,000 mm 2,0 UV-I 221 W/m 2,0 C 6,3 C 4,0 km/h (1 Bft) 0,00 %
30.03.2015 13:30 6,8 C 71 % 1001,2 hPa 0,0 l/m 2,2 km/h (1 Bft) NW 326 0 min 0,000 mm 2,0 UV-I 186 W/m 1,9 C 6,8 C 7,9 km/h (2 Bft) 0,00 %
30.03.2015 13:45 6,4 C 72 % 1001,9 hPa 0,0 l/m 10,8 km/h (2 Bft) SW 218 0 min 0,000 mm 2,0 UV-I 200 W/m 1,7 C 3,1 C 11,9 km/h (2 Bft) 0,00 %
30.03.2015 14:00 7,5 C 69 % 1002,1 hPa 0,0 l/m 12,2 km/h (2 Bft) SW 234 0 min 0,000 mm 3,0 UV-I 344 W/m 2,2 C 3,5 C 15,8 km/h (3 Bft) 0,00 %
30.03.2015 14:15 8,1 C 68 % 1002,0 hPa 0,0 l/m 0,0 km/h (0 Bft) O-NO 71 15 min 0,000 mm 3,0 UV-I 518 W/m 2,6 C 8,1 C 0,0 km/h (0 Bft) 0,00 %
30.03.2015 14:30 8,0 C 69 % 1002,2 hPa 0,0 l/m 3,2 km/h (1 Bft) W 276 0 min 0,000 mm 3,0 UV-I 250 W/m 2,7 C 8,0 C 11,9 km/h (2 Bft) 0,00 %
30.03.2015 14:45 7,7 C 69 % 1002,5 hPa 0,0 l/m 0,4 km/h (0 Bft) S 173 0 min 0,000 mm 2,0 UV-I 293 W/m 2,4 C 7,7 C 4,0 km/h (1 Bft) 0,00 %
30.03.2015 15:00 6,8 C 71 % 1002,8 hPa 0,0 l/m 7,2 km/h (2 Bft) N 353 0 min 0,000 mm 1,0 UV-I 113 W/m 1,9 C 6,1 C 15,8 km/h (3 Bft) 0,00 %
30.03.2015 15:15 6,3 C 72 % 1003,3 hPa 0,0 l/m 11,5 km/h (2 Bft) W-NW 288 0 min 0,000 mm 1,0 UV-I 93 W/m 1,6 C 2,6 C 19,8 km/h (3 Bft) 0,00 %
30.03.2015 15:30 6,3 C 72 % 1003,2 hPa 0,0 l/m 7,9 km/h (2 Bft) W 271 0 min 0,000 mm 2,0 UV-I 262 W/m 1,6 C 5,0 C 11,9 km/h (2 Bft) 0,00 %
30.03.2015 15:45 6,3 C 73 % 1003,7 hPa 0,0 l/m 3,2 km/h (1 Bft) W-SW 256 0 min 0,000 mm 1,0 UV-I 138 W/m 1,8 C 6,3 C 7,9 km/h (2 Bft) 0,00 %
30.03.2015 16:00 6,2 C 73 % 1003,4 hPa 0,0 l/m 6,8 km/h (2 Bft) O 95 0 min 0,000 mm 2,0 UV-I 194 W/m 1,7 C 5,9 C 11,9 km/h (2 Bft) 0,00 %
30.03.2015 16:15 6,3 C 72 % 1003,5 hPa 0,0 l/m 19,4 km/h (3 Bft) W-SW 239 0 min 0,000 mm 2,0 UV-I 99 W/m 1,6 C -1,3 C 36,0 km/h (5 Bft) 0,00 %
30.03.2015 16:30 6,1 C 70 % 1003,8 hPa 0,0 l/m 2,9 km/h (1 Bft) S-SO 152 0 min 0,000 mm 2,0 UV-I 216 W/m 1,0 C 6,1 C 11,9 km/h (2 Bft) 0,00 %
30.03.2015 16:45 7,2 C 67 % 1003,3 hPa 0,0 l/m 4,3 km/h (1 Bft) NW 315 0 min 0,000 mm 1,0 UV-I 184 W/m 1,5 C 7,2 C 7,9 km/h (2 Bft) 0,00 %
30.03.2015 17:00 6,8 C 70 % 1005,1 hPa 0,3 l/m 48,2 km/h (6 Bft) W-SW 255 0 min 0,000 mm 0,0 UV-I 7 W/m 1,7 C -7,0 C 68,4 km/h (8 Bft) 0,00 %
30.03.2015 17:15 4,1 C 80 % 1005,2 hPa 0,6 l/m 5,4 km/h (1 Bft) W-SW 256 0 min 0,000 mm 1,0 UV-I 50 W/m 1,0 C 4,1 C 7,9 km/h (2 Bft) 0,00 %
30.03.2015 17:30 4,2 C 81 % 1005,1 hPa 0,0 l/m 2,2 km/h (1 Bft) W-SW 253 0 min 0,000 mm 0,0 UV-I 40 W/m 1,2 C 4,2 C 4,0 km/h (1 Bft) 0,00 %
30.03.2015 17:45 4,5 C 80 % 1005,2 hPa 0,0 l/m 0,7 km/h (0 Bft) O-SO 113 15 min 0,000 mm 1,0 UV-I 453 W/m 1,4 C 4,5 C 4,0 km/h (1 Bft) 0,00 %
30.03.2015 18:00 4,7 C 80 % 1005,0 hPa 0,0 l/m 1,4 km/h (1 Bft) W-NW 284 0 min 0,000 mm 1,0 UV-I 89 W/m 1,6 C 4,7 C 4,0 km/h (1 Bft) 0,00 %
30.03.2015 18:15 5,1 C 80 % 1005,5 hPa 0,0 l/m 5,8 km/h (2 Bft) W-SW 245 0 min 0,000 mm 0,0 UV-I 62 W/m 1,9 C 5,1 C 11,9 km/h (2 Bft) 0,00 %
30.03.2015 18:30 5,2 C 80 % 1006,2 hPa 0,0 l/m 7,9 km/h (2 Bft) W-SW 253 0 min 0,000 mm 0,0 UV-I 8 W/m 2,0 C 3,9 C 11,9 km/h (2 Bft) 0,00 %
30.03.2015 18:45 5,0 C 80 % 1006,6 hPa 0,3 l/m 15,5 km/h (3 Bft) N-NO 19 0 min 0,000 mm 0,0 UV-I 0 W/m 1,8 C -1,2 C 36,0 km/h (5 Bft) 0,00 %
30.03.2015 19:00 4,9 C 74 % 1007,6 hPa 0,0 l/m 7,2 km/h (2 Bft) W-SW 251 0 min 0,000 mm 0,0 UV-I 1 W/m 0,7 C 4,2 C 7,9 km/h (2 Bft) 0,00 %
30.03.2015 19:15 4,5 C 77 % 1008,3 hPa 0,0 l/m 16,6 km/h (3 Bft) W-SW 256 0 min 0,000 mm 0,0 UV-I 0 W/m 0,8 C -2,3 C 24,1 km/h (4 Bft) 0,00 %
30.03.2015 19:30 4,1 C 77 % 1008,3 hPa 0,0 l/m 4,0 km/h (1 Bft) SW 231 0 min 0,000 mm 0,0 UV-I 0 W/m 0,4 C 4,1 C 7,9 km/h (2 Bft) 0,00 %
30.03.2015 19:45 4,2 C 76 % 1008,2 hPa 0,0 l/m 2,9 km/h (1 Bft) SO 146 0 min 0,000 mm 0,0 UV-I 0 W/m 0,4 C 4,2 C 7,9 km/h (2 Bft) 0,00 %
30.03.2015 20:00 4,2 C 76 % 1009,0 hPa 0,0 l/m 1,4 km/h (1 Bft) S-SW 202 0 min 0,000 mm 0,0 UV-I 0 W/m 0,4 C 4,2 C 4,0 km/h (1 Bft) 0,00 %
30.03.2015 20:15 4,0 C 77 % 1009,6 hPa 0,0 l/m 4,3 km/h (1 Bft) NW 315 0 min 0,000 mm 0,0 UV-I 0 W/m 0,3 C 4,0 C 7,9 km/h (2 Bft) 0,00 %
30.03.2015 20:30 3,9 C 76 % 1010,1 hPa 0,0 l/m 2,9 km/h (1 Bft) W-NW 301 0 min 0,000 mm 0,0 UV-I 0 W/m 0,1 C 3,9 C 7,9 km/h (2 Bft) 0,00 %
30.03.2015 20:45 3,9 C 77 % 1010,3 hPa 0,0 l/m 0,7 km/h (0 Bft) S-SW 196 0 min 0,000 mm 0,0 UV-I 0 W/m 0,2 C 3,9 C 4,0 km/h (1 Bft) 0,00 %
30.03.2015 21:00 3,9 C 76 % 1010,7 hPa 0,0 l/m 1,4 km/h (1 Bft) W-SW 252 0 min 0,000 mm 0,0 UV-I 0 W/m 0,1 C 3,9 C 4,0 km/h (1 Bft) 0,00 %
30.03.2015 21:15 4,0 C 76 % 1010,7 hPa 0,0 l/m 5,8 km/h (2 Bft) W-SW 256 0 min 0,000 mm 0,0 UV-I 0 W/m 0,2 C 4,0 C 7,9 km/h (2 Bft) 0,00 %
30.03.2015 21:30 4,2 C 76 % 1010,7 hPa 0,0 l/m 0,7 km/h (0 Bft) SO 129 0 min 0,000 mm 0,0 UV-I 0 W/m 0,4 C 4,2 C 4,0 km/h (1 Bft) 0,00 %
30.03.2015 21:45 4,1 C 78 % 1011,3 hPa 0,0 l/m 1,4 km/h (1 Bft) W 261 0 min 0,000 mm 0,0 UV-I 0 W/m 0,6 C 4,1 C 4,0 km/h (1 Bft) 0,00 %
30.03.2015 22:00 4,1 C 78 % 1011,3 hPa 0,0 l/m 4,7 km/h (1 Bft) NW 316 0 min 0,000 mm 0,0 UV-I 0 W/m 0,6 C 4,1 C 7,9 km/h (2 Bft) 0,00 %
30.03.2015 22:15 4,3 C 74 % 1011,5 hPa 0,0 l/m 7,2 km/h (2 Bft) W-SW 256 0 min 0,000 mm 0,0 UV-I 0 W/m 0,1 C 3,6 C 11,9 km/h (2 Bft) 0,00 %
30.03.2015 22:30 4,7 C 70 % 1011,7 hPa 0,0 l/m 10,4 km/h (2 Bft) W-SW 256 0 min 0,000 mm 0,0 UV-I 0 W/m -0,3 C 1,5 C 15,8 km/h (3 Bft) 0,00 %
30.03.2015 22:45 4,6 C 68 % 1011,9 hPa 0,0 l/m 8,3 km/h (2 Bft) W-SW 256 0 min 0,000 mm 0,0 UV-I 0 W/m -0,8 C 2,9 C 11,9 km/h (2 Bft) 0,00 %
30.03.2015 23:00 4,5 C 66 % 1012,2 hPa 0,0 l/m 0,4 km/h (0 Bft) S-SW 196 0 min 0,000 mm 0,0 UV-I 0 W/m -1,3 C 4,5 C 4,0 km/h (1 Bft) 0,00 %
30.03.2015 23:15 4,5 C 65 % 1012,3 hPa 0,0 l/m 15,8 km/h (3 Bft) W-SW 253 0 min 0,000 mm 0,0 UV-I 0 W/m -1,5 C -1,9 C 24,1 km/h (4 Bft) 0,00 %
30.03.2015 23:30 4,4 C 65 % 1012,5 hPa 0,0 l/m 0,4 km/h (0 Bft) S-SO 147 0 min 0,000 mm 0,0 UV-I 0 W/m -1,6 C 4,4 C 4,0 km/h (1 Bft) 0,00 %
30.03.2015 23:45 4,4 C 65 % 1012,5 hPa 0,0 l/m 1,8 km/h (1 Bft) S-SW 213 0 min 0,000 mm 0,0 UV-I 0 W/m -1,6 C 4,4 C 4,0 km/h (1 Bft) 0,00 %
_ Min-Zeit 20:30 23:15 03:45 - 07:15 - - - - - - 23:30 17:00 07:15 00:00
Minimum _ 3,9 C 65 % 996,6 hPa - 0,0 km/h (0 Bft) - - - - - - -1,6 C -7,0 C 0,0 km/h (0 Bft) 0,00 %
_ Max-Zeit 03:45 09:15 23:30 11:15 17:00 - - 14:15 00:00 14:00 14:15 00:15 03:45 17:00 00:00
Maximum _ 9,7 C 87 % 1012,5 hPa 0,9 l/m 48,2 km/h
W-SW (6 Bft)
- - 15 min 0,000 mm 3,0 UV-I 518 W/m 6,1 C 9,7 C 68,4 km/h
W-SW (8 Bft)
0,00 %
Durchschnitt _ 6,5 C 78 % 1002,2 hPa #11,7 l/m 6,0 km/h (2 Bft) W-SW - #30 min. #0,000 mm 1,4 UV-I 123 W/m 2,9 C 5,2 C 10,0 km/h (2 Bft) 0,00 %